"Pseudo-MPEC" for P11bVrz

Created 2021 Jan 14 11:07:25 UT using Find_Orb

Click here for an explanation of pseudo-MPECs

 
 Astrometry: 
     P11bVrz  C2021 01 04.50069 08 41 40.95 +35 58 05.7    ~1E9M 22.0 GVNEOCPG96
     P11bVrz  C2021 01 04.51620 08 41 39.54 +35 58 04.5    ~1E9M 22.1 GVNEOCPG96
     P11bVrz  C2021 01 06.36527 08 38 53.46 +35 55 05.2    ~1E87 22.1 GVNEOCPG96
     P11bVrz  C2021 01 06.37046 08 38 52.97 +35 55 05.6    ~1E87 22.5 GVNEOCPG96
     P11bVrz  C2021 01 122p*Vg1wEUnG#(j]Z9K!$j)R\F;.]k@.OwO`Nk`):a,vQC1jH2H8oF51
     P11bVrz  C2021 01 12OWjJ:[kAstrometryHeBxKJC1T]s:4$8EI`WKSL(B]rmw.8sZxx*F51
     P11bVrz  C2021 01 12Ad8Yredacted;7SG;EF_#j8)JtL-ms^U1^(E6O2DBE[OlQt8oYo9F51
     P11bVrz  C2021 01 12LRcFXJmQ/HGPa^17JUYok.aB\S7;H+gTn43?[(click*[O4Bgy37F51
     P11bVrz ^C2021 01 13.40531808 27 05.775+35 33 28.60   ~1DDq 21.73GVNEOCP568
     P11bVrz ^C2021 01 13.40630008 27 05.662+35 33 28.35   ~1DDq 21.70GVNEOCP568
     P11bVrz ^C2021 01 13.40727908 27 05.557+35 33 28.11   ~1DDq 21.71GVNEOCP568
     P11bVrz KC2021 01 14/F,.GBherej3for`MWg;D,explanationwb4[w=o@+I-BXTO2bP.H21
     P11bVrz KC2021 01 14S+A9-:@'633Y!HVqP#@^FRlOdT%ra0nTr.Ojie-RfWvOKMSleyxWH21
     P11bVrz KC2021 01 14(=eaiMr][DE044Ouj';![lQ-?*S^]QoenZL8axuCvu-ec]`TVUTHH21

Station data:
(568) Mauna Kea  (N19.826116 W155.472200)  US/Hawaii.
(F51) Pan-STARRS 1, Haleakala  (N20.707235 W156.255910)  US/Hawaii.
   Observers N. Primak, A. Schultz, S. Watters, J. Thiel, T. Goggia. Measurer
   PS1 Science Consortium. 1.8-m Ritchey-Chrétien + CCD.
(G96) Mt. Lemmon Survey  (N32.442754 W110.788720)  US/Arizona.  Observers T.
   A. Pruyne, B. M. Africano, E. J. Christensen, G. A. Farneth, D. C. Fuls,
   A. R. Gibbs, A. D. Grauer, H. Gröller, J. A. Johnson, R. A. Kowalski, S.
   M. Larson, G. J. Leonard, D. Rankin, R. L. Seaman, F. C. Shelly. 1.5-m
   reflector + 10K CCD.
(H21) Astronomical Research Observatory, Westfield  (N39.483057 W87.968270)
   US/Illinois. 0.76-m f/3.0 astrograph + CCD.

Orbital elements:  P11bVrz
   Perihelion 2020 Oct 23.191113 +/- 3.75791 TT =  4:35:12 (JD 2459145.691113)
Epoch 2021 Jan 14.0 TT = JDT 2459228.5   Earth MOID: 0.7303   Ma: 0.0583
M  35.37397980 +/- 1.6382627        (J2000 ecliptic)          AutoNEOCP
n   0.42717612 +/- 0.000606173      Peri.  108.98187 +/- 1.9790646
a   1.74608239 +/- 0.00165161       Node   329.24701 +/- 0.1226384
e   0.0326195 +/- 0.00202726        Incl.   12.36599 +/- 0.0724846
P   2.31/842.73d           H 20.9   G  0.15   U  7.8  
q 1.68912597 +/- 0.00495078    Q 1.80303880 +/- 0.00228242
From 14 observations 2021 Jan. 4-14; mean residual 0".24
Residuals in arcseconds: 
210104 G96  .22-  .28-    210112 F51  .29-  .02+    210113 568  .07+  .20-    
210104 G96  .18-  .20+    210112 F51  .15-  .10-    210114 H21  .15+  .12+    
210106 G96  .20+  .39-    210112 F51  .15-  .05-    210114 H21  .37+  .27+    
210106 G96  .41+  .60+    210113 568  .05+  .19-    210114 H21  .24-  .31+    
210112 F51  .14-  .15-    210113 568  .01+  .20-    

Ephemerides (geocentric):
Date (UTC) HH   RA              Dec         delta   r     elong  mag " sig PA
---- -- -- --  -------------   -----------  ------ ------ -----  --- ---- ---
2021 01 14 11  08 25 12.233   +35 28 38.73  .73479 1.7004 163.2 22.1 .196 167
2021 01 14 12  08 25 07.729   +35 28 26.83  .73474 1.7004 163.2 22.1 .204 166
2021 01 14 13  08 25 03.224   +35 28 14.88  .73469 1.7004 163.3 22.1 .213 166
2021 01 14 14  08 24 58.716   +35 28 02.90  .73465 1.7004 163.3 22.1 .221 165
2021 01 14 15  08 24 54.207   +35 27 50.88  .73460 1.7005 163.3 22.1 .230 164
2021 01 14 16  08 24 49.696   +35 27 38.81  .73455 1.7005 163.4 22.1 .239 164
2021 01 14 17  08 24 45.184   +35 27 26.70  .73451 1.7005 163.4 22.1 .248 163
2021 01 14 18  08 24 40.669   +35 27 14.56  .73446 1.7005 163.4 22.1 .257 163
2021 01 14 19  08 24 36.153   +35 27 02.37  .73442 1.7005 163.4 22.1 .266 162
2021 01 14 20  08 24 31.635   +35 26 50.14  .73438 1.7005 163.5 22.1 .275 162
2021 01 14 21  08 24 27.116   +35 26 37.87  .73433 1.7005 163.5 22.1 .285 161
2021 01 14 22  08 24 22.595   +35 26 25.56  .73429 1.7005 163.5 22.1 .294 161
2021 01 14 23  08 24 18.072   +35 26 13.21  .73425 1.7005 163.5 22.1 .304 160
2021 01 15 00  08 24 13.548   +35 26 00.82  .73420 1.7005 163.5 22.1 .313 160
2021 01 15 01  08 24 09.021   +35 25 48.39  .73416 1.7006 163.6 22.1 .323 159
2021 01 15 02  08 24 04.494   +35 25 35.91  .73412 1.7006 163.6 22.1 .333 159
2021 01 15 03  08 23 59.965   +35 25 23.40  .73408 1.7006 163.6 22.1 .343 159
2021 01 15 04  08 23 55.434   +35 25 10.84  .73404 1.7006 163.6 22.1 .353 158
2021 01 15 05  08 23 50.902   +35 24 58.25  .73400 1.7006 163.7 22.1 .363 158
2021 01 15 06  08 23 46.368   +35 24 45.61  .73396 1.7006 163.7 22.0 .373 157
2021 01 15 07  08 23 41.832   +35 24 32.93  .73392 1.7006 163.7 22.0 .384 157
2021 01 15 08  08 23 37.296   +35 24 20.21  .73388 1.7006 163.7 22.0 .394 157
2021 01 15 09  08 23 32.757   +35 24 07.45  .73384 1.7006 163.8 22.0 .405 156
2021 01 15 10  08 23 28.217   +35 23 54.65  .73380 1.7007 163.8 22.0 .416 156
2021 01 15 11  08 23 23.676   +35 23 41.80  .73376 1.7007 163.8 22.0 .426 156
2021 01 15 12  08 23 19.133   +35 23 28.92  .73372 1.7007 163.8 22.0 .437 155
2021 01 15 13  08 23 14.589   +35 23 15.99  .73369 1.7007 163.8 22.0 .448 155
2021 01 15 14  08 23 10.044   +35 23 03.02  .73365 1.7007 163.9 22.0 .459 155
2021 01 15 15  08 23 05.497   +35 22 50.02  .73361 1.7007 163.9 22.0 .471 154
2021 01 15 16  08 23 00.949   +35 22 36.97  .73358 1.7007 163.9 22.0 .482 154
2021 01 15 17  08 22 56.399   +35 22 23.88  .73354 1.7007 163.9 22.0 .493 154
2021 01 15 18  08 22 51.848   +35 22 10.74  .73350 1.7007 164.0 22.0 .505 154
2021 01 15 19  08 22 47.296   +35 21 57.57  .73347 1.7008 164.0 22.0 .517 153
2021 01 15 20  08 22 42.743   +35 21 44.36  .73343 1.7008 164.0 22.0 .528 153
2021 01 15 21  08 22 38.188   +35 21 31.10  .73340 1.7008 164.0 22.0 .540 153
2021 01 15 22  08 22 33.632   +35 21 17.80  .73337 1.7008 164.0 22.0 .552 152
2021 01 15 23  08 22 29.075   +35 21 04.46  .73333 1.7008 164.1 22.0 .564 152
2021 01 16 00  08 22 24.516   +35 20 51.08  .73330 1.7008 164.1 22.0 .576 152
2021 01 16 01  08 22 19.956   +35 20 37.66  .73327 1.7008 164.1 22.0 .589 152
2021 01 16 02  08 22 15.395   +35 20 24.20  .73323 1.7008 164.1 22.0 .601 151
2021 01 16 03  08 22 10.833   +35 20 10.70  .73320 1.7008 164.1 22.0 .614 151
2021 01 16 04  08 22 06.270   +35 19 57.15  .73317 1.7009 164.2 22.0 .626 151
2021 01 16 05  08 22 01.706   +35 19 43.56  .73314 1.7009 164.2 22.0 .639 151
2021 01 16 06  08 21 57.140   +35 19 29.93  .73311 1.7009 164.2 22.0 .652 150
2021 01 16 07  08 21 52.573   +35 19 16.26  .73308 1.7009 164.2 22.0 .665 150
2021 01 16 08  08 21 48.006   +35 19 02.55  .73305 1.7009 164.2 22.0 .678 150
2021 01 16 09  08 21 43.437   +35 18 48.80  .73302 1.7009 164.3 22.0 .691 150
2021 01 16 10  08 21 38.867   +35 18 35.01  .73299 1.7009 164.3 22.0 .705 149